TimeCST,TemperatureF,Dew PointF,Humidity,Sea Level PressureIn,VisibilityMPH,Wind Direction,Wind SpeedMPH,Gust SpeedMPH,PrecipitationIn,Events,Conditions,WindDirDegrees,DateUTC
12:15 AM,30.2,21.2,69,30.41,10.0,Calm,Calm,-,N/A,,Clear,0,2012-11-18 06:15:00
12:35 AM,30.2,21.2,69,30.41,10.0,Calm,Calm,-,N/A,,Clear,0,2012-11-18 06:35:00
12:55 AM,30.2,21.2,69,30.41,10.0,Calm,Calm,-,N/A,,Clear,0,2012-11-18 06:55:00
1:15 AM,30.2,21.2,69,30.40,10.0,Calm,Calm,-,N/A,,Clear,0,2012-11-18 07:15:00
1:55 AM,32.0,21.2,64,30.40,10.0,Calm,Calm,-,N/A,,Clear,0,2012-11-18 07:55:00
2:15 AM,30.2,21.2,69,30.40,10.0,Calm,Calm,-,N/A,,Clear,0,2012-11-18 08:15:00
2:35 AM,30.2,21.2,69,30.40,10.0,Calm,Calm,-,N/A,,Clear,0,2012-11-18 08:35:00
2:55 AM,30.2,21.2,69,30.40,10.0,Calm,Calm,-,N/A,,Clear,0,2012-11-18 08:55:00
3:15 AM,30.2,21.2,69,30.40,10.0,Calm,Calm,-,N/A,,Clear,0,2012-11-18 09:15:00
3:35 AM,28.4,19.4,69,30.40,10.0,Calm,Calm,-,N/A,,Clear,0,2012-11-18 09:35:00
3:55 AM,28.4,21.2,74,30.40,10.0,Calm,Calm,-,N/A,,Clear,0,2012-11-18 09:55:00
4:15 AM,28.4,19.4,69,30.40,10.0,Calm,Calm,-,N/A,,Clear,0,2012-11-18 10:15:00
4:35 AM,28.4,19.4,69,30.40,10.0,Calm,Calm,-,N/A,,Clear,0,2012-11-18 10:35:00
4:55 AM,28.4,21.2,74,30.41,10.0,Calm,Calm,-,N/A,,Clear,0,2012-11-18 10:55:00
5:15 AM,28.4,19.4,69,30.41,10.0,Calm,Calm,-,N/A,,Clear,0,2012-11-18 11:15:00
5:35 AM,28.4,19.4,69,30.41,10.0,Calm,Calm,-,N/A,,Clear,0,2012-11-18 11:35:00
5:55 AM,28.4,19.4,69,30.41,10.0,Calm,Calm,-,N/A,,Clear,0,2012-11-18 11:55:00
6:15 AM,28.4,19.4,69,30.41,5.0,Calm,Calm,-,N/A,,Clear,0,2012-11-18 12:15:00
6:35 AM,26.6,19.4,74,30.42,10.0,Calm,Calm,-,N/A,,Clear,0,2012-11-18 12:35:00
7:15 AM,28.4,19.4,69,30.43,9.0,Calm,Calm,-,N/A,,Clear,0,2012-11-18 13:15:00
7:35 AM,30.2,23.0,75,30.43,6.0,Calm,Calm,-,N/A,,Clear,0,2012-11-18 13:35:00
7:55 AM,33.8,24.8,70,30.43,9.0,Calm,Calm,-,N/A,,Clear,0,2012-11-18 13:55:00
8:15 AM,37.4,28.4,70,30.43,10.0,Calm,Calm,-,N/A,,Clear,0,2012-11-18 14:15:00
8:35 AM,39.2,30.2,70,30.43,10.0,Calm,Calm,-,N/A,,Clear,0,2012-11-18 14:35:00
8:55 AM,42.8,30.2,61,30.43,10.0,Calm,Calm,-,N/A,,Clear,0,2012-11-18 14:55:00
9:15 AM,46.4,32.0,57,30.42,10.0,Calm,Calm,-,N/A,,Clear,0,2012-11-18 15:15:00
9:35 AM,46.4,32.0,57,30.42,10.0,Calm,Calm,-,N/A,,Clear,0,2012-11-18 15:35:00
9:55 AM,48.2,32.0,54,30.42,10.0,Calm,Calm,-,N/A,,Clear,0,2012-11-18 15:55:00
10:35 AM,51.8,33.8,50,30.41,10.0,Calm,Calm,-,N/A,,Clear,0,2012-11-18 16:35:00
10:55 AM,53.6,35.6,51,30.40,10.0,Calm,Calm,-,N/A,,Clear,0,2012-11-18 16:55:00
11:15 AM,59.0,37.4,45,30.39,10.0,Calm,Calm,-,N/A,,Clear,0,2012-11-18 17:15:00
11:35 AM,57.2,35.6,44,30.38,10.0,Calm,Calm,-,N/A,,Clear,0,2012-11-18 17:35:00
11:55 AM,59.0,37.4,45,30.37,10.0,West,3.5,-,N/A,,Clear,260,2012-11-18 17:55:00
12:15 PM,60.8,37.4,42,30.37,10.0,West,3.5,-,N/A,,Clear,260,2012-11-18 18:15:00
12:35 PM,60.8,37.4,42,30.36,10.0,SW,3.5,-,N/A,,Clear,230,2012-11-18 18:35:00
12:55 PM,62.6,37.4,39,30.35,10.0,Calm,Calm,-,N/A,,Clear,0,2012-11-18 18:55:00
1:15 PM,62.6,35.6,37,30.35,10.0,Calm,Calm,-,N/A,,Clear,0,2012-11-18 19:15:00
1:35 PM,62.6,35.6,37,30.35,10.0,SW,3.5,-,N/A,,Clear,220,2012-11-18 19:35:00
2:15 PM,62.6,35.6,37,30.33,10.0,Calm,Calm,-,N/A,,Clear,0,2012-11-18 20:15:00
2:35 PM,62.6,37.4,39,30.33,10.0,SW,3.5,-,N/A,,Clear,230,2012-11-18 20:35:00
3:15 PM,62.6,37.4,39,30.33,10.0,Calm,Calm,-,N/A,,Clear,0,2012-11-18 21:15:00
3:35 PM,60.8,37.4,42,30.33,10.0,Calm,Calm,-,N/A,,Clear,0,2012-11-18 21:35:00
3:55 PM,60.8,35.6,39,30.33,10.0,Calm,Calm,-,N/A,,Clear,0,2012-11-18 21:55:00
4:35 PM,55.4,35.6,47,30.34,10.0,Calm,Calm,-,N/A,,Clear,0,2012-11-18 22:35:00
4:55 PM,53.6,33.8,47,30.35,10.0,NE,3.5,-,N/A,,Clear,50,2012-11-18 22:55:00
5:35 PM,46.4,33.8,62,30.35,10.0,Calm,Calm,-,N/A,,Clear,0,2012-11-18 23:35:00
5:55 PM,44.6,32.0,61,30.36,10.0,Calm,Calm,-,N/A,,Clear,0,2012-11-18 23:55:00
6:15 PM,44.6,32.0,61,30.35,10.0,Calm,Calm,-,N/A,,Clear,0,2012-11-19 00:15:00
6:35 PM,41.0,30.2,65,30.35,10.0,East,3.5,-,N/A,,Clear,100,2012-11-19 00:35:00
7:15 PM,39.2,28.4,65,30.35,10.0,Calm,Calm,-,N/A,,Clear,0,2012-11-19 01:15:00
7:35 PM,39.2,28.4,65,30.35,10.0,Calm,Calm,-,N/A,,Clear,0,2012-11-19 01:35:00
8:15 PM,39.2,28.4,65,30.36,10.0,Calm,Calm,-,N/A,,Clear,0,2012-11-19 02:15:00
8:35 PM,35.6,26.6,70,30.36,10.0,Calm,Calm,-,N/A,,Clear,0,2012-11-19 02:35:00
8:55 PM,35.6,24.8,65,30.36,10.0,Calm,Calm,-,N/A,,Clear,0,2012-11-19 02:55:00
9:15 PM,37.4,26.6,65,30.37,10.0,Calm,Calm,-,N/A,,Clear,0,2012-11-19 03:15:00
9:35 PM,35.6,26.6,70,30.36,10.0,Calm,Calm,-,N/A,,Clear,0,2012-11-19 03:35:00
9:55 PM,35.6,26.6,70,30.36,10.0,Calm,Calm,-,N/A,,Clear,0,2012-11-19 03:55:00
10:35 PM,35.6,26.6,70,30.35,10.0,Calm,Calm,-,N/A,,Clear,0,2012-11-19 04:35:00
10:55 PM,35.6,26.6,70,30.35,10.0,Calm,Calm,-,N/A,,Clear,0,2012-11-19 04:55:00
11:15 PM,35.6,26.6,70,30.35,10.0,Calm,Calm,-,N/A,,Clear,0,2012-11-19 05:15:00
11:55 PM,35.6,26.6,70,30.34,10.0,Calm,Calm,-,N/A,,Clear,0,2012-11-19 05:55:00